Voltar ao catálogo

INTELSAT 33E DEB

AtivoMEO
NORAD 64407·DEBRIS· XX

Lançado Aug 24, 2016 de Guiana Space Centre

Loading…

Próximas Passagens (próximas 24 horas)

TLE

AtualizadoSource: Space-Track

Época: Sep 14, 2026, 01:22 UTC

1 64407U 16053AM  26257.05722683 -.00000119  00000-0  00000-0 0  9993
2 64407   1.7156  67.2593 0332471 109.7507 254.7159  0.96109483  6519

Acompanhe INTELSAT 33E DEB em tempo real com AllMySat

Download on the App Store